N0ZMJ-3 Weather Reports


Display with metric or nautical units.
time (UTC)temp
F
wind
direction
speed
MPH
gust
MPH
rain 1hr
in
rain 24hr
in
rain mn
in
humidity
%
barometer
mb
20260505004416 52 322 4.0 9.0 0.00 0.00 0.00 49 1005.8
20260505004123 52 322 4.0 9.0 0.00 0.00 0.00 49 1005.8
20260505003415 52 336 3.0 9.0 0.00 0.00 0.00 49 1005.8
20260505002723 52 327 3.0 9.0 0.00 0.00 0.00 48 1005.8
20260505002415 52 332 2.0 11.0 0.00 0.00 0.00 48 1005.8
20260505002023 52 332 2.0 11.0 0.00 0.00 0.00 48 1005.8
20260505001415 53 301 4.0 12.0 0.00 0.00 0.00 47 1005.6
20260505001326 53 301 4.0 12.0 0.00 0.00 0.00 47 1005.6
20260505000622 53 322 3.0 12.0 0.00 0.00 0.00 47 1005.7
20260505000415 52 340 3.0 9.0 0.00 0.00 0.00 48 1005.7
20260504235923 52 343 3.0 12.0 0.00 0.00 0.00 48 1005.6
20260504235415 52 329 7.0 12.0 0.00 0.00 0.00 46 1005.7
20260504235223 52 329 7.0 12.0 0.00 0.00 0.00 46 1005.7
20260504234522 52 331 4.0 11.0 0.00 0.00 0.00 47 1005.7
20260504234415 53 332 4.0 13.0 0.00 0.00 0.00 47 1005.8
20260504233827 53 332 5.0 13.0 0.00 0.00 0.00 46 1005.7
20260504233415 53 325 5.0 12.0 0.00 0.00 0.00 47 1005.7
20260504233126 53 325 5.0 12.0 0.00 0.00 0.00 47 1005.7
20260504232415 53 311 3.0 13.0 0.00 0.00 0.00 48 1005.6
20260504231722 53 319 6.0 13.0 0.00 0.00 0.00 46 1005.6
20260504231414 53 302 5.0 12.0 0.00 0.00 0.00 47 1005.7
20260504231022 53 302 5.0 12.0 0.00 0.00 0.00 47 1005.7
20260504230414 52 319 5.0 13.0 0.00 0.00 0.00 47 1005.6
20260504230323 52 319 5.0 13.0 0.00 0.00 0.00 47 1005.6
20260504225622 52 324 6.0 11.0 0.00 0.00 0.00 46 1005.7
20260504225414 53 316 4.0 12.0 0.00 0.00 0.00 48 1005.7
20260504224922 53 308 5.0 16.0 0.00 0.00 0.00 47 1005.6
20260504224415 53 308 6.0 21.0 0.00 0.00 0.00 47 1005.6
20260504224223 53 308 6.0 21.0 0.00 0.00 0.00 47 1005.6
20260504223523 53 323 7.0 21.0 0.00 0.00 0.00 46 1005.5
20260504223415 53 314 6.0 17.0 0.00 0.00 0.00 47 1005.7
20260504222822 53 309 6.0 17.0 0.00 0.00 0.00 48 1005.6
20260504222414 53 305 4.0 15.0 0.00 0.00 0.00 48 1005.7
20260504222122 53 305 4.0 15.0 0.00 0.00 0.00 48 1005.7
20260504221414 53 323 5.0 17.0 0.00 0.00 0.00 48 1005.6
20260504220726 53 311 4.0 15.0 0.00 0.00 0.00 50 1005.7
20260504220414 53 299 5.0 18.0 0.00 0.00 0.00 50 1005.8
20260504220023 53 299 5.0 18.0 0.00 0.00 0.00 50 1005.8
20260504215416 53 315 6.0 15.0 0.00 0.00 0.00 50 1005.8
20260504215325 53 315 6.0 15.0 0.00 0.00 0.00 50 1005.8
20260504214625 53 312 6.0 15.0 0.00 0.00 0.00 51 1005.7
20260504214415 53 313 5.0 16.0 0.00 0.00 0.00 50 1005.7
20260504213927 53 319 5.0 16.0 0.00 0.00 0.00 51 1005.7
20260504213415 53 301 5.0 15.0 0.00 0.00 0.00 51 1005.8
20260504213224 53 301 5.0 15.0 0.00 0.00 0.00 51 1005.8
20260504212522 53 320 7.0 15.0 0.00 0.00 0.00 51 1005.7
20260504212415 53 315 7.0 19.0 0.00 0.00 0.00 51 1005.6
20260504211822 53 321 7.0 19.0 0.00 0.00 0.00 50 1005.7
20260504211414 54 325 7.0 17.0 0.00 0.00 0.00 51 1005.5
20260504211122 54 325 7.0 17.0 0.00 0.00 0.00 51 1005.5
20260504210416 54 302 5.0 20.0 0.00 0.00 0.00 52 1005.5
20260504205723 54 328 6.0 20.0 0.00 0.00 0.00 50 1005.3
20260504205415 54 305 5.0 19.0 0.00 0.00 0.00 50 1005.3
20260504205022 54 305 5.0 19.0 0.00 0.00 0.00 50 1005.3
20260504204415 55 317 7.0 31.0 0.00 0.00 0.00 52 1005.2
20260504204322 55 317 7.0 31.0 0.00 0.00 0.00 52 1005.2
20260504203624 55 304 7.0 31.0 0.00 0.00 0.00 51 1005.0
20260504203414 55 317 5.0 16.0 0.00 0.00 0.00 52 1004.8
20260504202922 55 321 6.0 16.0 0.00 0.00 0.00 51 1004.8
20260504202414 54 313 6.0 18.0 0.00 0.00 0.00 52 1004.8
20260504202223 54 313 6.0 18.0 0.00 0.00 0.00 52 1004.8
20260504201524 54 328 5.0 18.0 0.00 0.00 0.00 51 1005.0
20260504201416 55 304 6.0 18.0 0.00 0.00 0.00 51 1004.9
20260504200828 55 310 6.0 18.0 0.00 0.00 0.00 51 1004.9
20260504200416 54 302 6.0 18.0 0.00 0.00 0.00 54 1004.9
20260504200123 54 302 6.0 18.0 0.00 0.00 0.00 54 1004.9
20260504195416 54 309 6.0 14.0 0.00 0.00 0.00 54 1004.9
20260504194724 53 326 5.0 15.0 0.00 0.00 0.00 53 1005.0
20260504194415 54 303 6.0 15.0 0.00 0.00 0.00 53 1004.9
20260504194024 54 303 6.0 15.0 0.00 0.00 0.00 53 1004.9
20260504193415 54 316 5.0 16.0 0.00 0.00 0.00 54 1004.9
20260504193323 54 316 5.0 16.0 0.00 0.00 0.00 54 1004.9
20260504192622 54 295 5.0 14.0 0.00 0.00 0.00 55 1004.6
20260504192415 54 312 5.0 18.0 0.00 0.00 0.00 54 1004.6
20260504191925 53 302 5.0 18.0 0.00 0.00 0.00 54 1004.5
20260504191415 53 329 5.0 21.0 0.00 0.00 0.00 53 1004.7
20260504191222 53 329 5.0 21.0 0.00 0.00 0.00 53 1004.7
20260504190522 53 324 7.0 21.0 0.00 0.00 0.00 53 1004.7
20260504190415 54 316 8.0 20.0 0.00 0.00 0.00 53 1004.5
20260504185825 54 305 6.0 15.0 0.00 0.00 0.00 55 1004.3
20260504185414 54 301 7.0 15.0 0.00 0.00 0.00 55 1004.3
20260504185125 54 301 7.0 15.0 0.00 0.00 0.00 55 1004.3
20260504184414 54 279 6.0 18.0 0.00 0.00 0.00 54 1004.3
20260504183734 54 312 7.0 18.0 0.00 0.00 0.00 56 1004.5
20260504183416 54 282 5.0 13.0 0.00 0.00 0.00 57 1004.2
20260504183023 54 282 5.0 13.0 0.00 0.00 0.00 57 1004.2
20260504182416 54 322 5.0 16.0 0.00 0.00 0.00 56 1004.3
20260504182325 54 322 5.0 16.0 0.00 0.00 0.00 56 1004.3
20260504181623 54 327 7.0 18.0 0.00 0.00 0.00 54 1004.3
20260504181415 54 299 5.0 18.0 0.00 0.00 0.00 54 1004.2
20260504180923 55 328 6.0 14.0 0.00 0.00 0.00 55 1004.1
20260504180415 55 303 5.0 14.0 0.00 0.00 0.00 55 1004.1
20260504180222 55 303 5.0 14.0 0.00 0.00 0.00 55 1004.1
20260504175522 54 327 6.0 17.0 0.00 0.00 0.00 57 1004.1
20260504175415 54 323 7.0 17.0 0.00 0.00 0.00 54 1004.1
20260504174823 55 313 5.0 15.0 0.00 0.00 0.00 54 1004.0
20260504174415 55 334 6.0 16.0 0.00 0.00 0.00 54 1003.8
20260504174126 55 334 6.0 16.0 0.00 0.00 0.00 54 1003.8
20260504173415 55 327 8.0 19.0 0.00 0.00 0.00 50 1004.0
20260504172723 55 330 6.0 19.0 0.00 0.00 0.00 49 1003.7
20260504172414 56 329 5.0 18.0 0.00 0.00 0.00 49 1003.7
20260504172023 56 329 5.0 18.0 0.00 0.00 0.00 49 1003.7
20260504171414 56 307 6.0 15.0 0.00 0.00 0.00 46 1003.6
20260504171322 56 307 6.0 15.0 0.00 0.00 0.00 46 1003.6
20260504170621 56 312 5.0 15.0 0.00 0.00 0.00 47 1003.4
20260504170414 57 318 6.0 17.0 0.00 0.00 0.00 50 1003.4
20260504160415 56 337 8.0 19.0 0.00 0.00 0.00 57 1002.7
20260504160322 56 337 8.0 19.0 0.00 0.00 0.00 57 1002.7
20260504150723 55 330 6.0 14.0 0.00 0.00 0.00 63 1001.9
20260504150415 55 338 8.0 17.0 0.00 0.00 0.00 62 1001.9
20260504141123 53 334 6.0 11.0 0.00 0.00 0.00 69 1001.7
20260504140415 53 340 4.0 10.0 0.00 0.00 0.00 70 1001.7
20260504130415 52 338 2.0 6.0 0.00 0.00 0.00 79 1001.1
20260504130122 52 338 2.0 6.0 0.00 0.00 0.00 79 1001.1
20260504110414 51 231 2.0 8.0 0.00 0.00 0.00 78 999.5
20260504100415 54 263 3.0 12.0 0.00 0.00 0.00 68 999.7
20260504081414 56 220 7.0 14.0 0.00 0.00 0.00 53 999.3
20260504080722 56 219 8.0 14.0 0.00 0.00 0.00 52 999.4
20260504080414 55 222 7.0 14.0 0.00 0.00 0.00 52 999.5
20260504060123 54 230 4.0 9.0 0.00 0.00 0.00 51 1001.3
20260504050527 54 219 4.0 8.0 0.00 0.00 0.00 54 1002.1
20260504050415 54 223 4.0 7.0 0.00 0.00 0.00 53 1002.3
20260504045822 54 217 2.0 6.0 0.00 0.00 0.00 53 1002.3
20260504045414 54 217 3.0 6.0 0.00 0.00 0.00 53 1002.4
20260504045122 54 217 3.0 6.0 0.00 0.00 0.00 53 1002.4
20260504044415 54 240 2.0 7.0 0.00 0.00 0.00 52 1002.4
20260504043722 54 217 3.0 7.0 0.00 0.00 0.00 52 1002.6
20260504043415 54 224 3.0 5.0 0.00 0.00 0.00 52 1002.6
20260504043023 54 224 3.0 5.0 0.00 0.00 0.00 52 1002.6
20260504042415 54 224 3.0 7.0 0.00 0.00 0.00 51 1002.7
20260504042326 54 224 3.0 7.0 0.00 0.00 0.00 51 1002.7
20260504041624 54 216 3.0 7.0 0.00 0.00 0.00 51 1002.6
20260504041415 54 233 3.0 6.0 0.00 0.00 0.00 50 1002.9
20260504040927 54 234 3.0 6.0 0.00 0.00 0.00 49 1002.9
20260504040414 54 234 2.0 5.0 0.00 0.00 0.00 49 1003.0
20260504040223 54 234 2.0 5.0 0.00 0.00 0.00 49 1003.0
20260504035523 54 234 3.0 6.0 0.00 0.00 0.00 49 1003.2
20260504035414 54 234 3.0 6.0 0.00 0.00 0.00 48 1003.4
20260504034822 54 242 2.0 6.0 0.00 0.00 0.00 48 1003.4
20260504034414 54 264 1.0 5.0 0.00 0.00 0.00 49 1003.5
20260504034123 54 264 1.0 5.0 0.00 0.00 0.00 49 1003.5
20260504033414 54 264 2.0 5.0 0.00 0.00 0.00 49 1003.6
20260504032721 54 264 2.0 4.0 0.00 0.00 0.00 50 1003.6
20260504032416 54 264 1.0 4.0 0.00 0.00 0.00 49 1003.8
20260504032023 54 264 1.0 4.0 0.00 0.00 0.00 49 1003.8
20260504031416 55 264 1.0 3.0 0.00 0.00 0.00 49 1004.0
20260504031326 55 264 1.0 3.0 0.00 0.00 0.00 49 1004.0
20260504030625 55 264 0.0 3.0 0.00 0.00 0.00 49 1004.1
20260504030416 55 264 1.0 4.0 0.00 0.00 0.00 49 1004.0
20260504025924 55 264 1.0 4.0 0.00 0.00 0.00 49 1004.0
20260504025416 56 264 1.0 3.0 0.00 0.00 0.00 49 1003.9
20260504025226 56 264 1.0 3.0 0.00 0.00 0.00 49 1003.9
20260504024524 56 264 1.0 3.0 0.00 0.00 0.00 47 1004.1
20260504024415 57 264 1.0 3.0 0.00 0.00 0.00 47 1004.1
20260504023822 57 264 0.0 3.0 0.00 0.00 0.00 46 1004.2
20260504023415 57 264 1.0 4.0 0.00 0.00 0.00 45 1004.3
20260504023122 57 264 1.0 4.0 0.00 0.00 0.00 45 1004.3
20260504022416 58 264 1.0 4.0 0.00 0.00 0.00 44 1004.3
20260504021723 59 264 1.0 3.0 0.00 0.00 0.00 43 1004.3
20260504021416 59 264 1.0 3.0 0.00 0.00 0.00 42 1004.3
20260504021025 59 264 1.0 3.0 0.00 0.00 0.00 42 1004.3
20260504020416 60 264 2.0 4.0 0.00 0.00 0.00 41 1004.4
20260504020326 60 264 2.0 4.0 0.00 0.00 0.00 41 1004.4
20260504015629 61 264 1.0 4.0 0.00 0.00 0.00 40 1004.4
20260504015415 61 264 1.0 2.0 0.00 0.00 0.00 40 1004.5
20260504014925 62 264 1.0 3.0 0.00 0.00 0.00 40 1004.5
20260504014415 62 264 1.0 5.0 0.00 0.00 0.00 38 1004.5
20260504014224 62 264 1.0 5.0 0.00 0.00 0.00 38 1004.5
20260504013522 63 264 1.0 5.0 0.00 0.00 0.00 37 1004.6
20260504013414 63 264 1.0 3.0 0.00 0.00 0.00 36 1004.6
20260504012822 63 264 1.0 3.0 0.00 0.00 0.00 36 1004.6
20260504012414 64 264 2.0 5.0 0.00 0.00 0.00 35 1004.6
20260504012123 64 264 2.0 5.0 0.00 0.00 0.00 35 1004.6
20260504011416 65 264 1.0 6.0 0.00 0.00 0.00 34 1004.6
20260504010724 66 264 2.0 6.0 0.00 0.00 0.00 34 1004.7
20260504010415 66 265 2.0 6.0 0.00 0.00 0.00 33 1004.7
20260504010024 66 265 2.0 6.0 0.00 0.00 0.00 33 1004.7
20260504005415 67 240 2.0 8.0 0.00 0.00 0.00 32 1004.8
20260504005327 67 240 2.0 8.0 0.00 0.00 0.00 32 1004.8